• In Hungary
  • List of Countries
  • For 7 days
  • Water Temperature
  • Satellite Maps
  • Weather Map
  • News
  • Weather Widgets
  • user-avatar
    Login

    Hourly Weather Horodysche

    Today, 12 December, Tuesday

    Time Temperature Precipitation Wind Pressure Humidity
    00:00 +3°C° 0 mm 6 mps 734 mmHg 81%
    01:00 +4°C° 0 mm 6 mps 734 mmHg 80%
    02:00 +4°C° 0 mm 6 mps 734 mmHg 79%
    03:00 +4°C° 0 mm 6 mps 734 mmHg 78%
    04:00 +5°C° 0 mm 6 mps 734 mmHg 76%
    05:00 +5°C° 0 mm 7 mps 734 mmHg 75%
    06:00 +5°C° 0 mm 7 mps 734 mmHg 76%
    07:00 +5°C° 0 mm 6 mps 734 mmHg 76%
    08:00 +5°C° 0 mm 6 mps 735 mmHg 77%
    09:00 +6°C° 0 mm 7 mps 735 mmHg 75%
    10:00 +8°C° 0 mm 7 mps 735 mmHg 73%
    11:00 +9°C° 0 mm 7 mps 736 mmHg 71%
    12:00 +9°C° 0 mm 7 mps 736 mmHg 70%
    13:00 +10°C° 0 mm 8 mps 736 mmHg 68%
    14:00 +11°C° 0 mm 8 mps 737 mmHg 66%
    15:00 +10°C° 0 mm 8 mps 737 mmHg 70%
    16:00 +9°C° 0 mm 7 mps 738 mmHg 73%
    17:00 +8°C° 0 mm 7 mps 738 mmHg 76%
    18:00 +8°C° 0 mm 6 mps 739 mmHg 79%
    19:00 +8°C° 0 mm 5 mps 739 mmHg 81%
    20:00 +7°C° 0 mm 5 mps 740 mmHg 84%
    21:00 +7°C° 0 mm 4 mps 740 mmHg 83%
    22:00 +6°C° 0 mm 4 mps 741 mmHg 83%
    23:00 +7°C° 0 mm 3 mps 741 mmHg 82%

    Tomorrow, 13 December, Wednesday

    Time Temperature Precipitation Wind Pressure Humidity
    00:00 +5°C° 0.2 mm 3 mps 742 mmHg 81%
    01:00 +5°C° 0.2 mm 3 mps 743 mmHg 79%
    02:00 +4°C° 0.2 mm 3 mps 743 mmHg 78%
    03:00 +4°C° 0.5 mm 3 mps 743 mmHg 77%
    04:00 +3°C° 0.5 mm 3 mps 744 mmHg 77%
    05:00 +3°C° 0.5 mm 3 mps 744 mmHg 76%
    06:00 +3°C° 0.4 mm 3 mps 744 mmHg 78%
    07:00 +2°C° 0.4 mm 3 mps 745 mmHg 79%
    08:00 +2°C° 0.4 mm 3 mps 745 mmHg 81%
    09:00 +2°C° 0.2 mm 3 mps 745 mmHg 81%
    10:00 +2°C° 0.2 mm 3 mps 746 mmHg 81%
    11:00 +2°C° 0.2 mm 3 mps 746 mmHg 82%
    12:00 +2°C° 0 mm 3 mps 746 mmHg 80%
    13:00 +2°C° 0 mm 3 mps 746 mmHg 79%
    14:00 +2°C° 0 mm 3 mps 745 mmHg 78%
    15:00 +2°C° 0 mm 2 mps 745 mmHg 80%
    16:00 +2°C° 0 mm 2 mps 745 mmHg 83%
    17:00 +2°C° 0 mm 1 mps 745 mmHg 86%
    18:00 +2°C° 0 mm 1 mps 744 mmHg 87%
    19:00 +1°C° 0 mm 1 mps 744 mmHg 88%
    20:00 +1°C° 0 mm 1 mps 744 mmHg 89%
    21:00 +1°C° 0 mm 1 mps 744 mmHg 90%
    22:00 +1°C° 0 mm 1 mps 743 mmHg 90%
    23:00 +1°C° 0 mm 1 mps 743 mmHg 91%

    Day after tomorrow, 14 December, Thursday

    Time Temperature Precipitation Wind Pressure Humidity
    00:00 -1°C° 0 mm 2 mps 743 mmHg 91%
    01:00 -1°C° 0 mm 2 mps 742 mmHg 91%
    02:00 -1°C° 0 mm 2 mps 742 mmHg 92%
    03:00 -1°C° 0 mm 3 mps 741 mmHg 92%
    04:00 -1°C° 0 mm 3 mps 740 mmHg 92%
    05:00 -2°C° 0 mm 4 mps 740 mmHg 93%
    06:00 -2°C° 0 mm 4 mps 739 mmHg 92%
    07:00 -2°C° 0 mm 4 mps 739 mmHg 91%
    08:00 -2°C° 0 mm 5 mps 739 mmHg 91%
    09:00 -1°C° 0 mm 5 mps 738 mmHg 85%
    10:00 -1°C° 0 mm 6 mps 738 mmHg 80%
    11:00 +1°C° 0 mm 6 mps 737 mmHg 74%
    12:00 +1°C° 0 mm 6 mps 737 mmHg 73%
    13:00 +2°C° 0 mm 6 mps 737 mmHg 72%
    14:00 +2°C° 0 mm 6 mps 736 mmHg 70%
    15:00 +2°C° 0 mm 6 mps 737 mmHg 73%
    16:00 +2°C° 0 mm 6 mps 737 mmHg 75%
    17:00 +1°C° 0 mm 6 mps 737 mmHg 78%
    18:00 +1°C° 0 mm 5 mps 737 mmHg 80%
    19:00 +1°C° 0 mm 5 mps 737 mmHg 81%
    20:00 +1°C° 0 mm 4 mps 737 mmHg 83%
    21:00 +1°C° 0.1 mm 4 mps 737 mmHg 85%
    22:00 +1°C° 0.1 mm 3 mps 737 mmHg 86%
    23:00 +1°C° 0.1 mm 3 mps 736 mmHg 88%

    15 December, Friday

    Time Temperature Precipitation Wind Pressure Humidity
    00:00 +1°C° 0.3 mm 3 mps 736 mmHg 90%
    01:00 +1°C° 0.3 mm 3 mps 736 mmHg 91%
    02:00 +2°C° 0.3 mm 2 mps 735 mmHg 92%
    03:00 +2°C° 0.1 mm 2 mps 735 mmHg 92%
    04:00 +2°C° 0.1 mm 2 mps 734 mmHg 92%
    05:00 +1°C° 0.1 mm 3 mps 734 mmHg 92%
    06:00 +2°C° 0.1 mm 2 mps 733 mmHg 92%
    07:00 +2°C° 0.1 mm 2 mps 733 mmHg 93%
    08:00 +2°C° 0.1 mm 2 mps 733 mmHg 93%
    09:00 +1°C° 0 mm 3 mps 733 mmHg 90%
    10:00 +2°C° 0 mm 3 mps 733 mmHg 88%
    11:00 +2°C° 0 mm 3 mps 733 mmHg 86%
    12:00 +3°C° 0 mm 3 mps 733 mmHg 84%
    13:00 +3°C° 0 mm 4 mps 733 mmHg 82%
    14:00 +4°C° 0 mm 4 mps 733 mmHg 80%
    15:00 +3°C° 0 mm 4 mps 734 mmHg 82%
    16:00 +3°C° 0 mm 3 mps 734 mmHg 85%
    17:00 +2°C° 0 mm 3 mps 734 mmHg 87%
    18:00 +1°C° 0 mm 3 mps 735 mmHg 87%
    19:00 +2°C° 0 mm 2 mps 735 mmHg 87%
    20:00 +1°C° 0 mm 2 mps 736 mmHg 86%
    21:00 +1°C° 0 mm 2 mps 736 mmHg 85%
    22:00 +2°C° 0 mm 1 mps 736 mmHg 84%
    23:00 +2°C° 0 mm 1 mps 736 mmHg 83%

    16 December, Saturday

    Time Temperature Precipitation Wind Pressure Humidity
    00:00 +2°C° 0 mm 1 mps 736 mmHg 82%
    01:00 +2°C° 0 mm 1 mps 736 mmHg 81%
    02:00 +1°C° 0 mm 2 mps 735 mmHg 80%
    03:00 +1°C° 0.3 mm 2 mps 735 mmHg 80%
    04:00 +1°C° 0.3 mm 2 mps 734 mmHg 81%
    05:00 0°C° 0.3 mm 3 mps 734 mmHg 81%
    06:00 0°C° 0.8 mm 3 mps 733 mmHg 82%
    07:00 0°C° 0.8 mm 3 mps 733 mmHg 84%
    08:00 0°C° 0.8 mm 3 mps 733 mmHg 85%
    09:00 0°C° 0.4 mm 3 mps 733 mmHg 86%
    10:00 0°C° 0.4 mm 3 mps 733 mmHg 87%
    11:00 +1°C° 0.4 mm 2 mps 733 mmHg 88%
    12:00 +1°C° 0.5 mm 2 mps 733 mmHg 89%
    13:00 +1°C° 0.5 mm 2 mps 734 mmHg 90%
    14:00 +1°C° 0.5 mm 2 mps 734 mmHg 91%
    15:00 +1°C° 0.3 mm 2 mps 735 mmHg 91%
    16:00 +1°C° 0.3 mm 2 mps 735 mmHg 90%
    17:00 +1°C° 0.3 mm 2 mps 736 mmHg 90%
    18:00 -1°C° 0.1 mm 2 mps 736 mmHg 90%
    19:00 -1°C° 0.1 mm 2 mps 737 mmHg 90%
    20:00 -1°C° 0.1 mm 2 mps 737 mmHg 89%
    21:00 -1°C° 0 mm 2 mps 738 mmHg 90%
    22:00 -1°C° 0 mm 3 mps 738 mmHg 90%
    23:00 -1°C° 0 mm 3 mps 739 mmHg 90%

    17 December, Sunday

    Time Temperature Precipitation Wind Pressure Humidity
    00:00 -1°C° 0 mm 3 mps 739 mmHg 90%
    01:00 -2°C° 0 mm 3 mps 739 mmHg 91%
    02:00 -3°C° 0 mm 4 mps 740 mmHg 91%
    03:00 -3°C° 0 mm 4 mps 740 mmHg 92%
    04:00 -3°C° 0 mm 4 mps 741 mmHg 92%
    05:00 -2°C° 0 mm 4 mps 741 mmHg 92%
    06:00 -3°C° 0 mm 4 mps 741 mmHg 92%
    07:00 -2°C° 0 mm 3 mps 742 mmHg 92%
    08:00 -2°C° 0 mm 3 mps 742 mmHg 92%
    09:00 -2°C° 0 mm 3 mps 743 mmHg 90%
    10:00 -2°C° 0 mm 3 mps 743 mmHg 88%
    11:00 -1°C° 0 mm 3 mps 744 mmHg 86%
    12:00 -1°C° 0 mm 3 mps 744 mmHg 85%
    13:00 -1°C° 0 mm 3 mps 744 mmHg 85%
    14:00 -1°C° 0 mm 2 mps 744 mmHg 84%
    15:00 -1°C° 0 mm 2 mps 744 mmHg 86%
    16:00 -2°C° 0 mm 2 mps 745 mmHg 88%
    17:00 -3°C° 0 mm 2 mps 745 mmHg 89%
    18:00 -3°C° 0 mm 2 mps 745 mmHg 89%
    19:00 -3°C° 0 mm 2 mps 745 mmHg 89%
    20:00 -3°C° 0 mm 2 mps 746 mmHg 89%
    21:00 -3°C° 0 mm 2 mps 746 mmHg 89%
    22:00 -3°C° 0 mm 2 mps 746 mmHg 88%
    23:00 -3°C° 0 mm 2 mps 746 mmHg 87%
    Show more